Wind_Speed
45 44 44 47 52 49 45 42 42 39 38 38 39 38 36 35 34 32 32 32 32 30 29 28 29 29 28 31 30 32 32 27 25 22 19 17 17 17 18 18 19 19 21 23 23 25 26 27 28
48 44 42 42 43 47 46 44 43 41 40 40 41 40 38 37 34 34 34 34 32 30 28 28 30 29 30 30 30 30 31 27 24 22 20 19 17 16 15 15 17 19 22 23 25 27 27 28 29
48 47 43 40 43 47 47 45 41 41 40 40 42 40 38 37 38 36 35 35 32 30 29 31 31 29 29 30 30 29 29 27 24 22 19 19 18 18 18 17 17 18 20 22 25 28 29 30 31
48 46 45 41 44 49 50 48 45 42 42 41 42 40 38 38 37 35 36 33 32 31 30 30 32 31 29 30 31 30 27 27 26 23 22 21 21 22 21 21 21 21 23 24 25 26 27 30 31
47 46 43 44 48 50 49 48 46 46 45 44 43 40 38 37 39 36 35 33 32 33 33 34 34 33 31 31 33 32 27 28 29 27 25 24 24 25 24 24 25 25 26 27 28 29 31 33 35
48 43 41 50 53 49 46 49 49 50 47 45 43 41 41 40 41 39 38 36 36 37 36 37 37 35 32 32 33 33 30 29 29 30 27 28 28 28 28 28 28 27 27 29 30 33 34 35 37
53 48 47 49 51 49 49 49 49 50 48 48 45 44 43 43 41 40 41 41 40 39 41 42 41 38 35 34 35 34 32 30 31 32 31 31 32 32 32 32 33 34 35 35 37 38 39 41 42
58 54 51 48 50 51 51 52 52 50 48 49 48 46 45 44 43 43 45 45 43 42 44 44 43 40 37 37 37 35 33 32 34 35 33 34 34 35 36 37 38 40 41 41 42 42 44 45 46
63 54 54 53 50 51 52 54 51 51 49 48 47 46 45 44 44 46 47 45 44 46 45 45 46 42 40 40 38 37 34 36 36 39 38 38 39 40 41 41 43 44 44 45 47 49 50 52 52
64 59 60 58 54 51 50 50 48 49 48 48 46 44 43 43 45 45 46 45 47 46 46 47 47 45 45 42 39 39 36 37 40 43 41 41 42 43 44 46 47 48 50 52 54 54 55 57 57
68 65 63 60 58 55 53 47 44 47 47 48 46 45 44 43 44 43 46 46 45 47 50 50 48 47 47 44 42 42 40 39 45 45 43 44 45 47 48 49 51 53 54 55 57 59 60 57 54
72 69 66 64 61 59 55 47 45 43 44 46 49 47 47 45 45 46 48 47 48 50 52 52 52 50 45 45 44 43 42 45 50 49 49 49 49 49 50 53 55 56 57 58 57 57 56 52 49
76 74 71 67 65 61 57 51 48 42 41 42 45 48 49 47 46 46 47 50 52 55 53 52 49 47 49 50 46 45 44 51 53 53 54 53 52 52 54 56 57 58 57 57 57 54 52 49 48
79 77 74 70 68 64 59 54 50 47 45 42 43 45 48 50 52 48 48 49 52 51 50 50 51 52 52 51 48 46 52 56 57 57 56 55 54 56 58 56 54 53 55 56 53 51 48 48 49
81 80 76 73 70 67 62 56 54 50 49 46 44 43 45 46 46 49 49 49 51 53 53 52 50 51 52 52 51 52 59 63 61 60 58 58 58 59 57 58 57 56 55 53 51 49 49 51 54
83 82 78 74 72 69 64 62 57 54 53 50 48 45 44 45 46 46 49 50 49 50 50 52 55 54 55 55 55 59 66 67 65 62 61 60 61 59 60 59 58 56 55 52 51 51 52 55 58
82 79 77 74 73 72 68 64 60 57 55 53 50 47 47 45 46 52 51 49 49 50 51 52 56 58 58 58 60 68 71 67 66 63 63 62 61 60 60 59 58 58 55 54 54 54 56 58 61
75 76 77 75 73 74 71 68 64 61 59 55 52 50 48 49 48 52 54 55 51 49 53 55 59 64 66 70 71 66 66 65 64 63 63 62 61 61 61 60 58 57 56 55 56 57 59 63 66
78 79 79 78 76 76 73 70 66 62 60 58 54 51 51 52 53 53 54 55 55 57 58 61 62 65 66 66 67 67 66 65 66 65 66 66 65 63 62 61 59 58 59 61 60 62 64 68 73
78 78 78 78 78 76 74 71 68 65 62 59 56 55 53 53 54 56 57 59 60 61 64 65 67 69 69 69 70 70 70 68 67 68 68 67 64 64 63 65 61 59 62 63 64 66 68 69 73
78 77 75 76 76 76 76 72 70 67 64 61 60 60 57 58 58 59 61 63 65 66 68 69 70 71 72 73 74 74 75 74 73 72 71 70 67 67 67 65 65 66 66 67 67 70 70 71 72
80 77 75 74 75 76 75 73 70 68 65 63 63 63 61 61 61 61 63 66 68 70 70 73 74 75 77 79 80 79 78 78 78 76 74 73 72 73 72 71 72 72 71 70 71 72 72 74 73
83 80 77 75 75 75 74 72 71 69 66 66 65 64 63 62 64 65 66 67 69 71 72 74 76 78 79 81 82 81 81 81 79 77 76 74 74 75 75 75 76 75 74 74 74 74 75 74 68
86 83 80 78 76 75 74 71 71 69 69 68 67 67 66 65 66 67 68 70 72 72 73 75 78 79 81 83 83 84 83 82 79 78 77 75 75 76 76 78 79 80 78 78 78 79 78 71 65
88 86 83 80 77 74 73 72 72 72 72 72 71 71 70 69 67 68 70 71 72 74 77 80 80 80 84 86 87 84 80 77 74 75 76 78 81 82 81 84 85 83 82 80 78 75 70 68 63
91 88 84 81 78 76 76 73 73 74 75 75 74 73 73 74 74 74 73 73 75 77 79 81 83 87 86 85 82 79 72 71 74 80 82 84 86 84 79 77 78 77 76 72 71 69 67 63 63
91 88 86 84 82 81 79 78 78 77 77 77 77 75 74 73 75 76 77 78 78 80 81 84 83 82 81 76 69 68 69 72 76 81 82 82 83 81 79 71 65 64 65 65 63 59 56 51 45
92 92 90 88 86 84 82 81 80 81 80 79 77 76 76 78 79 81 79 79 83 83 84 81 75 70 66 67 68 69 71 73 74 75 76 78 79 68 64 56 53 51 49 45 41 36 34 31 25
87 90 91 90 88 86 84 83 82 82 83 82 81 81 81 82 85 83 83 82 82 79 71 66 64 64 64 65 66 66 66 66 68 69 65 60 66 62 49 40 34 30 27 24 24 23 20 20 24
80 82 85 87 87 85 84 83 83 85 85 82 81 81 81 83 83 79 77 73 68 64 63 61 60 60 59 58 58 60 59 54 51 55 57 59 57 45 34 25 19 18 15 14 14 15 19 20 23
Wind_Direction
233 231 233 233 236 239 235 231 233 236 239 241 245 247 251 255 259 264 271 274 279 285 291 297 301 306 313 318 323 327 330 328 323 320 319 318 319 316 302 292 287 281 280 276 276 274 270 269 271
230 230 232 232 231 230 230 233 233 234 238 239 243 249 254 255 259 267 273 273 278 283 287 295 298 301 307 315 324 326 331 330 326 325 327 329 326 323 321 309 301 292 286 283 279 277 278 275 274
227 231 230 232 229 226 228 229 233 234 238 242 244 249 254 258 265 268 273 274 276 281 290 296 292 300 306 312 318 322 329 331 332 328 329 331 329 327 324 317 306 298 291 290 286 283 283 283 282
229 228 231 229 230 227 227 230 233 233 235 240 246 250 256 261 264 268 272 272 276 280 289 294 296 295 304 308 313 317 320 330 331 327 324 325 325 323 320 319 315 309 302 300 297 294 291 287 286
231 228 229 232 232 228 227 229 232 232 232 237 241 248 252 259 264 268 268 272 274 279 287 291 295 295 300 304 307 312 313 316 325 324 318 317 318 316 314 311 308 305 299 295 291 287 285 284 284
233 228 227 228 229 231 230 231 229 231 233 237 241 245 248 254 262 266 265 270 273 276 284 290 291 294 296 302 303 306 306 311 313 315 310 308 310 311 310 308 306 300 296 294 291 288 288 286 285
232 230 229 230 230 230 232 234 233 236 236 236 239 244 247 253 258 264 264 269 273 278 280 287 288 290 294 298 300 302 302 304 307 309 307 304 307 307 308 308 306 301 297 294 291 288 287 287 285
233 232 234 234 234 232 232 233 234 238 241 238 236 242 246 251 258 261 262 270 275 278 278 282 284 288 290 293 296 298 297 299 304 306 305 303 302 304 305 305 303 301 298 297 296 293 290 289 288
232 231 235 234 234 232 232 233 235 238 240 240 239 241 245 249 256 261 265 271 273 276 277 279 281 286 289 288 293 295 293 296 303 304 301 302 302 302 302 302 302 300 296 295 293 292 291 291 290
231 232 234 235 235 234 236 236 236 237 239 242 241 241 245 248 254 259 263 269 274 275 275 276 281 285 286 285 289 290 289 292 298 303 301 300 301 299 300 300 299 296 294 292 291 290 291 293 293
226 230 233 234 236 237 239 241 239 238 239 242 244 241 244 247 252 257 261 267 271 271 272 277 282 280 283 284 289 290 288 292 299 298 299 299 300 299 298 297 295 294 293 293 293 293 294 295 295
224 227 232 235 236 237 240 243 244 242 241 241 245 244 243 244 251 255 259 266 270 268 271 275 278 279 279 286 290 288 288 293 298 297 298 299 299 297 295 294 293 294 294 295 296 295 295 294 292
222 224 227 232 235 237 241 243 247 247 246 243 243 243 244 246 249 254 259 262 264 267 270 273 274 277 281 288 286 284 287 296 298 298 299 298 296 295 295 295 296 298 298 297 297 295 293 292 291
219 222 225 229 233 235 240 242 245 248 248 246 245 247 249 249 250 252 256 261 264 267 271 274 278 281 282 283 283 281 289 296 297 296 297 297 298 297 297 299 298 299 297 296 295 293 292 291 290
217 221 224 228 232 235 240 243 243 246 248 250 251 248 249 253 255 253 255 260 262 270 273 275 278 279 279 283 280 282 291 297 296 296 296 296 295 296 298 297 297 298 297 295 293 290 289 289 289
218 220 221 226 231 235 239 241 243 246 248 251 253 255 255 255 258 259 259 263 266 270 269 274 274 277 280 282 278 284 292 296 296 294 293 293 294 294 295 297 296 296 294 292 290 289 289 290 291
218 220 222 223 229 234 237 240 243 244 248 250 253 257 255 255 257 255 258 260 266 269 271 274 272 275 278 278 281 286 291 293 294 294 293 293 293 293 295 296 296 295 292 290 290 290 290 291 291
220 221 223 223 227 232 235 236 239 242 246 249 249 253 257 257 257 257 260 262 261 262 264 268 268 277 279 281 284 288 290 293 293 292 293 294 295 296 295 295 294 292 290 290 291 291 291 291 291
217 218 221 223 225 229 232 234 238 241 244 248 251 250 252 256 260 261 260 264 269 271 273 276 279 280 282 283 287 289 291 292 293 295 294 294 295 295 294 292 291 288 288 289 290 289 290 291 292
219 221 221 224 226 229 232 234 237 240 244 248 250 252 256 259 261 262 264 266 270 272 273 275 278 281 284 287 289 291 292 292 293 294 293 293 293 293 291 292 289 288 288 291 290 291 293 295 296
219 220 222 225 229 231 234 235 238 242 244 247 251 253 256 259 262 264 266 269 272 274 277 279 281 284 286 289 289 290 292 292 292 292 292 291 290 290 289 289 290 289 287 286 290 291 293 296 299
220 221 223 226 230 233 236 238 239 242 245 247 250 254 257 261 265 267 269 271 274 276 280 282 284 288 288 288 289 290 290 291 292 292 290 289 289 291 291 290 290 290 291 288 291 291 293 295 298
219 223 225 226 229 233 235 238 241 243 245 248 250 254 258 263 265 268 271 274 276 278 281 284 285 285 287 289 289 290 291 291 291 291 290 289 291 292 290 290 288 287 287 286 289 290 292 296 297
218 222 226 228 231 233 235 238 241 244 247 251 253 255 258 262 265 269 272 275 279 281 284 284 284 285 287 287 288 291 291 290 291 290 289 290 291 290 288 288 288 286 285 286 285 288 291 293 295
218 222 226 229 232 235 238 240 243 247 249 252 254 257 259 263 267 271 274 278 279 281 282 284 284 285 285 286 289 289 290 291 289 289 290 290 290 289 286 285 285 287 286 285 285 287 289 291 293
219 223 226 229 233 236 240 243 245 248 251 254 256 259 262 266 270 273 275 277 281 284 284 284 284 285 287 288 288 290 292 291 290 290 290 289 289 290 288 286 285 284 283 283 283 283 286 288 291
219 222 226 230 233 236 239 242 246 250 253 257 260 264 267 270 271 273 277 282 285 283 284 286 287 287 288 289 289 290 291 290 290 291 292 293 294 295 295 292 286 281 279 278 280 284 286 287 287
222 224 228 230 233 237 241 245 250 253 257 260 264 268 271 274 275 277 280 282 283 284 285 286 288 289 289 290 291 292 293 294 294 294 295 296 297 300 300 292 285 281 281 281 282 280 277 278 274
224 227 230 233 236 239 244 248 252 256 260 263 266 269 272 273 277 281 283 283 284 284 284 285 285 287 290 291 294 296 296 295 294 295 296 297 301 306 302 295 286 279 275 271 268 266 268 270 275
229 231 234 237 240 244 248 253 258 261 264 267 269 272 275 276 278 280 281 279 277 279 282 283 287 291 294 296 298 298 298 296 296 295 297 298 306 309 299 288 277 270 262 256 257 260 267 280 287
Height
10819 10824 10831 10838 10845 10852 10855 10860 10864 10869 10872 10874 10876 10879 10881 10883 10885 10887 10888 10890 10891 10892 10893 10893 10892 10891 10890 10888 10885 10882 10880 10878 10877 10875 10873 10872 10872 10872 10871 10870 10870 10870 10870 10870 10870 10870 10869 10869 10868
10812 10819 10826 10832 10840 10843 10847 10853 10858 10862 10866 10868 10869 10873 10876 10878 10881 10883 10884 10886 10887 10888 10889 10889 10889 10887 10886 10884 10882 10880 10877 10875 10874 10872 10871 10870 10869 10868 10867 10867 10867 10866 10866 10866 10866 10865 10864 10864 10863
10805 10813 10821 10828 10834 10836 10839 10846 10852 10856 10859 10862 10864 10867 10871 10873 10876 10878 10880 10881 10882 10883 10884 10885 10884 10884 10882 10881 10879 10878 10875 10872 10871 10870 10869 10868 10867 10866 10866 10865 10864 10863 10863 10862 10861 10860 10859 10858 10857
10798 10807 10816 10824 10825 10826 10832 10839 10845 10849 10853 10856 10858 10862 10866 10868 10871 10873 10875 10876 10877 10878 10879 10880 10880 10879 10878 10877 10876 10874 10872 10870 10868 10867 10866 10866 10865 10864 10863 10862 10861 10860 10860 10859 10858 10856 10854 10852 10851
10791 10800 10810 10816 10816 10819 10826 10833 10838 10842 10845 10849 10852 10856 10860 10863 10865 10869 10871 10871 10872 10872 10873 10874 10875 10874 10874 10874 10872 10870 10869 10867 10865 10863 10862 10862 10862 10861 10860 10859 10858 10857 10855 10854 10853 10851 10849 10847 10844
10786 10795 10803 10803 10805 10814 10821 10826 10830 10833 10838 10843 10847 10850 10854 10858 10859 10863 10865 10866 10866 10867 10868 10868 10869 10869 10868 10868 10867 10866 10864 10863 10861 10860 10858 10857 10856 10856 10855 10854 10853 10852 10851 10849 10847 10845 10843 10840 10838
10778 10786 10791 10794 10802 10809 10814 10817 10822 10826 10832 10836 10840 10844 10848 10852 10854 10857 10859 10859 10860 10862 10862 10862 10863 10864 10863 10864 10862 10861 10859 10858 10857 10855 10854 10852 10851 10849 10848 10847 10846 10844 10843 10842 10840 10838 10835 10832 10830
10768 10777 10783 10789 10795 10800 10805 10808 10814 10820 10826 10829 10833 10838 10842 10846 10849 10851 10852 10853 10854 10856 10856 10857 10857 10857 10857 10858 10857 10857 10855 10853 10852 10850 10849 10847 10845 10843 10842 10840 10838 10836 10834 10832 10830 10828 10825 10822 10820
10758 10770 10777 10779 10784 10789 10795 10799 10808 10813 10819 10823 10827 10832 10837 10840 10843 10844 10845 10847 10849 10850 10850 10850 10850 10851 10852 10852 10852 10851 10850 10848 10847 10844 10843 10841 10839 10837 10835 10832 10830 10828 10824 10822 10819 10816 10814 10810 10808
10751 10762 10764 10770 10776 10782 10787 10794 10803 10808 10812 10817 10821 10825 10830 10833 10836 10838 10839 10841 10843 10843 10843 10843 10844 10845 10845 10846 10846 10845 10844 10843 10841 10839 10837 10835 10832 10830 10827 10825 10822 10819 10816 10812 10808 10805 10802 10798 10795
10743 10750 10754 10761 10768 10774 10779 10789 10796 10802 10806 10810 10815 10818 10822 10825 10828 10830 10832 10835 10836 10836 10836 10837 10838 10839 10838 10838 10838 10838 10837 10835 10834 10831 10829 10827 10825 10822 10819 10816 10812 10808 10804 10800 10796 10792 10789 10786 10782
10732 10738 10745 10753 10759 10764 10772 10784 10789 10795 10800 10803 10807 10811 10814 10817 10820 10823 10827 10828 10828 10829 10829 10829 10831 10831 10830 10830 10831 10830 10829 10828 10825 10823 10820 10818 10815 10812 10808 10804 10801 10798 10793 10789 10785 10781 10777 10774 10771
10720 10727 10734 10743 10749 10756 10766 10775 10782 10789 10793 10796 10799 10803 10807 10810 10812 10815 10818 10820 10820 10820 10821 10822 10822 10822 10821 10821 10822 10822 10821 10819 10816 10814 10810 10807 10804 10800 10797 10793 10790 10787 10782 10777 10773 10769 10766 10764 10761
10711 10716 10725 10735 10739 10747 10759 10768 10776 10781 10785 10789 10793 10796 10799 10802 10805 10808 10809 10811 10811 10812 10814 10814 10814 10814 10813 10812 10813 10812 10811 10809 10807 10804 10801 10796 10792 10789 10785 10782 10779 10775 10771 10767 10763 10759 10756 10753 10749
10698 10706 10718 10727 10733 10741 10752 10762 10767 10773 10777 10781 10785 10788 10791 10794 10798 10799 10802 10802 10803 10805 10805 10806 10806 10805 10804 10804 10804 10803 10801 10798 10796 10793 10790 10786 10782 10777 10773 10770 10767 10764 10761 10755 10751 10749 10747 10743 10738
10686 10696 10710 10722 10727 10734 10746 10751 10759 10766 10769 10773 10777 10780 10784 10788 10790 10792 10793 10793 10796 10796 10797 10797 10797 10796 10796 10795 10795 10793 10790 10788 10785 10781 10778 10774 10770 10767 10763 10759 10756 10752 10749 10744 10741 10739 10735 10730 10725
10678 10695 10708 10716 10722 10726 10737 10745 10751 10757 10761 10765 10770 10773 10776 10780 10784 10783 10783 10786 10787 10788 10788 10788 10787 10786 10787 10785 10785 10783 10781 10777 10773 10769 10765 10762 10758 10755 10751 10747 10744 10740 10736 10731 10729 10726 10722 10717 10713
10679 10689 10698 10707 10713 10718 10726 10734 10741 10747 10752 10757 10761 10765 10769 10771 10774 10774 10776 10777 10778 10779 10779 10780 10778 10777 10776 10775 10773 10771 10769 10765 10761 10757 10752 10748 10745 10742 10738 10735 10731 10728 10724 10719 10716 10713 10709 10703 10697
10664 10674 10684 10693 10701 10707 10716 10725 10733 10739 10744 10748 10754 10757 10759 10762 10765 10766 10767 10768 10770 10770 10770 10768 10768 10766 10765 10763 10761 10758 10755 10753 10749 10744 10739 10734 10730 10727 10724 10720 10718 10714 10710 10705 10703 10699 10696 10688 10682
10658 10666 10676 10684 10692 10700 10707 10717 10725 10731 10737 10741 10745 10747 10750 10753 10756 10756 10757 10758 10759 10760 10759 10757 10756 10755 10753 10750 10747 10744 10741 10739 10735 10731 10727 10721 10718 10714 10709 10706 10703 10700 10695 10690 10686 10683 10681 10675 10667
10648 10659 10670 10678 10685 10692 10699 10710 10717 10723 10729 10733 10736 10738 10740 10741 10745 10747 10747 10747 10747 10747 10745 10745 10744 10743 10741 10738 10734 10730 10727 10724 10720 10717 10712 10706 10702 10699 10695 10691 10688 10685 10680 10675 10671 10667 10664 10660 10654
10641 10652 10662 10670 10678 10686 10694 10702 10709 10715 10721 10724 10726 10728 10731 10733 10735 10736 10735 10735 10735 10734 10734 10733 10732 10730 10727 10722 10719 10716 10713 10708 10704 10701 10697 10691 10686 10682 10679 10674 10670 10667 10665 10660 10655 10651 10647 10642 10639
10634 10644 10653 10661 10670 10677 10686 10693 10700 10706 10710 10713 10716 10719 10722 10724 10724 10724 10725 10724 10724 10722 10722 10722 10719 10715 10712 10707 10703 10699 10695 10691 10687 10683 10679 10675 10671 10666 10661 10656 10652 10649 10646 10642 10637 10633 10628 10626 10621
10626 10635 10644 10653 10661 10670 10678 10686 10690 10695 10698 10702 10706 10710 10712 10713 10714 10714 10714 10713 10712 10712 10711 10707 10702 10700 10697 10691 10687 10683 10678 10674 10670 10665 10661 10657 10653 10647 10642 10636 10632 10629 10626 10623 10619 10615 10611 10608 10605
10620 10629 10638 10646 10656 10666 10672 10677 10682 10685 10689 10693 10695 10699 10701 10703 10705 10706 10705 10703 10702 10700 10697 10693 10689 10685 10680 10675 10671 10665 10660 10656 10651 10646 10642 10637 10632 10626 10622 10616 10611 10607 10604 10603 10601 10597 10595 10592 10589
10614 10625 10635 10643 10652 10660 10662 10668 10672 10674 10677 10682 10685 10688 10692 10694 10695 10694 10691 10689 10689 10686 10682 10677 10672 10666 10664 10658 10652 10649 10643 10638 10633 10627 10622 10615 10609 10603 10599 10593 10588 10585 10582 10582 10581 10579 10578 10577 10575
10610 10620 10628 10636 10642 10648 10653 10657 10660 10664 10668 10671 10676 10680 10683 10683 10681 10678 10678 10677 10673 10668 10664 10659 10655 10651 10646 10642 10636 10632 10627 10622 10616 10608 10601 10594 10585 10580 10575 10567 10562 10560 10560 10560 10561 10561 10561 10561 10561
10605 10613 10619 10626 10633 10640 10646 10649 10653 10655 10659 10662 10667 10670 10670 10668 10665 10663 10662 10659 10655 10652 10648 10644 10641 10634 10631 10626 10621 10617 10611 10605 10598 10590 10583 10575 10566 10560 10552 10545 10542 10541 10542 10544 10545 10547 10548 10549 10550
10601 10608 10615 10622 10629 10635 10641 10644 10647 10649 10650 10652 10655 10656 10654 10651 10647 10648 10646 10643 10639 10636 10632 10629 10626 10621 10616 10610 10606 10601 10595 10589 10582 10575 10568 10561 10553 10544 10535 10530 10528 10528 10530 10533 10535 10537 10540 10541 10542
10600 10606 10612 10619 10626 10631 10635 10638 10637 10634 10636 10642 10643 10643 10639 10633 10632 10633 10631 10627 10623 10620 10618 10615 10610 10605 10601 10597 10592 10586 10581 10574 10569 10563 10556 10549 10542 10533 10525 10522 10521 10523 10524 10526 10529 10531 10533 10533 10533